This is the latest recevied weather packets stored in our database for station/object WA6TJQ. If no packets are shown the sender has not sent any weather packets the latest 10 day(s).
| Time | Temp. | Humidity | Pressure | Rain* | Wind** | Luminosity | Snow |
|---|---|---|---|---|---|---|---|
| 1777521108 | 9.44° C | 61% | 1010.9 hPa | 0 mm | - | - | - |
| 1777520807 | 9.44° C | 61% | 1010.8 hPa | 0 mm | - | - | - |
| 1777520507 | 9.44° C | 61% | 1010.8 hPa | 0 mm | - | - | - |
| 1777520207 | 9.44° C | 61% | 1011 hPa | 0 mm | - | - | - |
| 1777519907 | 9.44° C | 61% | 1010.9 hPa | 0 mm | - | - | - |
| 1777519607 | 9.44° C | 61% | 1010.9 hPa | 0 mm | - | - | - |
| 1777519307 | 9.44° C | 62% | 1010.9 hPa | 0 mm | - | - | - |
| 1777519007 | 9.44° C | 62% | 1010.9 hPa | 0 mm | - | - | - |
| 1777518707 | 9.44° C | 63% | 1010.7 hPa | 0 mm | - | - | - |
| 1777518407 | 9.44° C | 62% | 1010.6 hPa | 0 mm | - | - | - |
| 1777518107 | 9.44° C | 63% | 1010.5 hPa | 0 mm | - | - | - |
| 1777517807 | 9.44° C | 63% | 1010.5 hPa | 0 mm | - | - | - |
| 1777517507 | 9.44° C | 64% | 1010.4 hPa | 0 mm | - | - | - |
| 1777517207 | 9.44° C | 66% | 1010.5 hPa | 0 mm | - | - | - |
| 1777516907 | 10° C | 69% | 1010.5 hPa | 0 mm | - | - | - |
| 1777516607 | 10° C | 71% | 1010.3 hPa | 0 mm | - | - | - |
| 1777516307 | 10° C | 70% | 1010.4 hPa | 0 mm | - | - | - |
| 1777516007 | 10° C | 68% | 1010.4 hPa | 0 mm | - | - | - |
| 1777515707 | 10° C | 69% | 1010.3 hPa | 0 mm | - | - | - |
| 1777515407 | 10.56° C | 69% | 1010.3 hPa | 0 mm | - | - | - |
| 1777515107 | 10.56° C | 69% | 1010.3 hPa | 0 mm | - | - | - |
| 1777514806 | 10.56° C | 68% | 1010.3 hPa | 0 mm | - | - | - |
| 1777514506 | 10.56° C | 68% | 1010.3 hPa | 0 mm | - | - | - |
| 1777514207 | 11.11° C | 67% | 1010.4 hPa | 0 mm | - | - | - |
| 1777513906 | 11.11° C | 66% | 1010.4 hPa | 0 mm | - | - | - |
* Rain latest hour (hover to see other rain measurements)
** Current wind speed in m/s (hover to see current wind gust speed)